Date String (YYYY-MM-DD hh:mm:ss) UTC,Instrument flags,absolute air pressure of the measurement (hPa),sample flow rate (lpm),inlet stack bypass flow (lpm),air temperature of the measurement (°C),ambient temperature measured by the external sensor (°C),aerosol sample conditioner tube jacket temperature (°C),OPC LED temperature (°C),internal box temperature (°C),relative humidity of the measurement (%),span deviation,mass concentration of particles derived from Lorenz-Mie calculation of OPC scattering (μg/m³),mass concentration of particles derived from Lorenz-Mie calculation of OPC scattering (μg/m³),mass concentration of particles derived from Lorenz-Mie calculation of OPC scattering (μg/m³)
DateTimeUTC,F1_M11,P_M11,Q1_M11,Q2_M11,T1_M11,T2_M11,T3_M11,T4_M11,T5_M11,U1_M11,ZSPAN_M11,X2_M11,X0_M11,X1_M11
2024-06-14 16:00:00,SystemResetWarning,0832.2,4.99,000.00,029.8,029.1,000.0,038.0,031.6,037.9,-001.7,0012.58,0039.54,0009.32
2024-06-14 16:01:00,SystemResetWarning,0832.2,5.00,000.00,029.9,029.3,000.0,038.0,031.7,037.5,-001.6,0012.56,0037.92,0009.37
2024-06-14 16:02:00,SystemResetWarning,0832.2,5.00,000.00,029.9,029.4,000.0,038.1,031.8,037.4,-001.6,0012.57,0038.56,0009.41
2024-06-14 16:03:00,SystemResetWarning,0832.2,5.01,000.00,030.0,029.5,000.0,038.1,031.8,037.4,-001.5,0012.55,0038.37,0009.44
2024-06-14 16:04:00,SystemResetWarning,0832.2,5.00,000.00,030.0,029.6,000.0,038.1,031.9,037.4,-001.2,0012.70,0042.10,0009.49
2024-06-14 16:05:00,SystemResetWarning,0832.2,4.99,000.00,030.1,029.6,000.0,038.2,032.0,037.1,-000.7,0012.68,0045.23,0009.55
2024-06-14 16:06:00,SystemResetWarning,0832.2,4.99,000.00,030.0,028.3,000.0,038.3,031.3,037.5,-000.7,0012.76,0045.67,0009.60
2024-06-14 16:07:00,SystemResetWarning,0832.2,5.00,000.00,029.6,026.3,000.0,038.3,030.3,038.4,-000.9,0012.81,0047.25,0009.61
2024-06-14 16:08:00,SystemResetWarning,0832.2,5.01,000.00,029.3,025.8,000.0,038.3,030.0,039.0,-000.9,0012.86,0048.75,0009.64
2024-06-14 16:09:00,SystemResetWarning,0832.2,5.02,000.00,029.2,026.2,000.0,038.1,030.1,039.4,-001.0,0013.02,0049.83,0009.67
2024-06-14 16:10:00,SystemResetWarning,0832.2,4.99,000.00,029.1,026.6,000.0,038.0,030.3,039.6,-000.4,0013.07,0048.69,0009.68
2024-06-14 16:11:00,SystemResetWarning,0832.2,5.00,000.00,029.1,027.1,000.0,037.9,030.6,039.9,0000.0,0013.13,0048.84,0009.67
2024-06-14 16:12:00,SystemResetWarning,0832.2,5.00,000.00,029.2,027.5,000.0,037.8,030.8,040.0,0000.1,0013.16,0049.78,0009.64
2024-06-14 16:13:00,SystemResetWarning,0832.2,5.00,000.00,029.2,027.9,000.0,037.8,030.9,039.7,0000.1,0013.08,0049.17,0009.60
2024-06-14 16:14:00,SystemResetWarning,0832.2,5.00,000.00,029.3,028.2,000.0,037.8,031.1,039.4,0000.3,0013.04,0047.37,0009.58
2024-06-14 16:15:00,SystemResetWarning,0832.2,5.00,000.00,029.4,028.4,000.0,037.8,031.2,039.4,0000.6,0013.01,0046.64,0009.56
2024-06-14 16:16:00,SystemResetWarning,0832.1,5.00,000.00,029.4,028.6,000.0,037.8,031.3,039.5,0000.2,0013.06,0044.05,0009.53
2024-06-14 16:17:00,SystemResetWarning,0832.1,5.00,000.00,029.5,028.8,000.0,037.8,031.4,039.1,0000.3,0012.95,0045.23,0009.47
2024-06-14 16:18:00,SystemResetWarning,0832.1,5.00,000.00,029.6,029.0,000.0,037.8,031.5,038.6,0000.3,0012.94,0045.04,0009.45
2024-06-14 16:19:00,SystemResetWarning,0832.2,5.00,000.00,029.7,029.1,000.0,037.8,031.5,038.3,0000.6,0012.93,0044.14,0009.44
2024-06-14 16:20:00,SystemResetWarning,0832.2,4.99,000.00,029.7,029.2,000.0,037.9,031.6,038.1,0000.3,0012.85,0043.14,0009.40
2024-06-14 16:21:00,SystemResetWarning,0832.2,4.98,000.00,029.8,029.3,000.0,037.9,031.7,037.4,0000.1,0012.81,0044.72,0009.37
2024-06-14 16:22:00,SystemResetWarning,0832.2,5.00,000.00,029.9,029.4,000.0,037.9,031.7,037.4,0000.0,0012.88,0046.49,0009.37
2024-06-14 16:23:00,SystemResetWarning,0832.2,5.01,000.00,029.9,029.5,000.0,038.0,031.8,037.0,0000.3,0012.84,0047.06,0009.35
2024-06-14 16:24:00,SystemResetWarning,0832.2,5.00,000.00,030.0,029.4,000.0,038.0,031.8,037.1,0000.5,0012.81,0045.75,0009.34
2024-06-14 16:25:00,SystemResetWarning,0832.1,4.98,000.00,029.8,027.5,000.0,038.1,030.9,037.1,0000.1,0012.77,0045.62,0009.32
2024-06-14 16:26:00,SystemResetWarning,0832.0,5.01,000.00,029.4,026.0,000.0,038.1,030.1,038.0,-000.4,0012.68,0043.08,0009.28
2024-06-14 16:27:00,SystemResetWarning,0832.0,5.01,000.00,029.1,025.9,000.0,038.1,030.0,038.6,-000.4,0012.61,0043.12,0009.27
2024-06-14 16:28:00,SystemResetWarning,0832.0,5.00,000.00,029.0,026.3,000.0,037.9,030.1,039.6,-000.2,0012.61,0041.92,0009.28
2024-06-14 16:29:00,SystemResetWarning,0832.0,5.00,000.00,029.0,026.8,000.0,037.8,030.4,039.5,-000.4,0012.53,0041.01,0009.25
2024-06-14 16:30:00,SystemResetWarning,0832.0,5.00,000.00,029.1,027.2,000.0,037.7,030.6,039.3,-000.3,0012.47,0042.04,0009.24
2024-06-14 16:31:00,SystemResetWarning,0832.0,5.00,000.00,029.1,027.6,000.0,037.7,030.8,039.0,-000.0,0012.49,0041.87,0009.25
2024-06-14 16:32:00,SystemResetWarning,0832.0,5.00,000.00,029.2,028.0,000.0,037.7,030.9,039.3,0000.4,0012.49,0040.52,0009.26
2024-06-14 16:33:00,SystemResetWarning,0832.0,5.00,000.00,029.2,028.2,000.0,037.7,031.0,038.6,0000.7,0012.37,0039.55,0009.22
2024-06-14 16:34:00,SystemResetWarning,0832.1,5.00,000.00,029.3,028.5,000.0,037.7,031.1,038.3,0000.7,0012.30,0039.31,0009.21
2024-06-14 16:35:00,SystemResetWarning,0832.1,5.00,000.00,029.4,028.7,000.0,037.7,031.2,038.1,0000.5,0012.36,0040.74,0009.21
2024-06-14 16:36:00,SystemResetWarning,0832.1,5.00,000.00,029.5,028.9,000.0,037.7,031.3,038.1,0000.4,0012.44,0041.57,0009.23
2024-06-14 16:37:00,SystemResetWarning,0832.1,4.99,000.00,029.5,029.0,000.0,037.7,031.4,037.8,0000.6,0012.51,0042.41,0009.23
2024-06-14 16:38:00,SystemResetWarning,0832.2,4.99,000.00,029.6,029.1,000.0,037.8,031.5,037.9,0000.7,0012.47,0042.19,0009.21
2024-06-14 16:39:00,SystemResetWarning,0832.2,5.00,000.00,029.7,029.2,000.0,037.8,031.6,037.8,0000.5,0012.43,0042.76,0009.18
2024-06-14 16:40:00,SystemResetWarning,0832.2,5.00,000.00,029.7,029.3,000.0,037.8,031.7,038.1,0000.9,0012.47,0042.74,0009.18
2024-06-14 16:41:00,SystemResetWarning,0832.2,5.00,000.00,029.8,029.4,000.0,037.9,031.7,038.5,0000.9,0012.46,0042.15,0009.11
2024-06-14 16:42:00,SystemResetWarning,0832.2,5.00,000.00,029.9,029.5,000.0,037.9,031.8,038.5,0000.8,0012.43,0041.87,0009.06
2024-06-14 16:43:00,SystemResetWarning,0832.2,5.00,000.00,029.9,028.9,000.0,038.0,031.5,038.3,0000.6,0012.45,0042.18,0009.03
2024-06-14 16:44:00,SystemResetWarning,0832.2,5.00,000.00,029.6,026.7,000.0,038.0,030.5,039.1,0000.2,0012.49,0042.67,0009.06
2024-06-14 16:45:00,SystemResetWarning,0832.2,5.01,000.00,029.2,025.7,000.0,038.0,029.9,039.8,0000.0,0012.50,0043.38,0009.07
2024-06-14 16:46:00,SystemResetWarning,0832.2,5.00,000.00,029.0,025.9,000.0,037.9,029.9,040.5,-000.3,0012.44,0043.96,0009.07
2024-06-14 16:47:00,SystemResetWarning,0832.2,4.99,000.00,028.9,026.4,000.0,037.8,030.1,040.4,-000.4,0012.39,0044.94,0009.03
2024-06-14 16:48:00,SystemResetWarning,0832.2,5.00,000.00,029.0,026.9,000.0,037.7,030.4,040.3,-000.5,0012.39,0046.22,0009.02
2024-06-14 16:49:00,SystemResetWarning,0832.3,5.00,000.00,029.0,027.3,000.0,037.6,030.6,039.9,-000.5,0012.39,0045.31,0009.04
2024-06-14 16:50:00,SystemResetWarning,0832.3,5.01,000.00,029.1,027.7,000.0,037.6,030.8,039.9,-000.5,0012.44,0044.25,0009.07
2024-06-14 16:51:00,SystemResetWarning,0832.3,4.99,000.00,029.1,028.0,000.0,037.6,030.9,040.1,-000.9,0012.44,0044.60,0009.10
2024-06-14 16:52:00,SystemResetWarning,0832.3,5.00,000.00,029.2,028.2,000.0,037.6,031.0,039.3,-001.1,0012.41,0045.03,0009.13
2024-06-14 16:53:00,SystemResetWarning,0832.3,5.00,000.00,029.3,028.5,000.0,037.6,031.1,039.3,-001.2,0012.44,0045.84,0009.16
2024-06-14 16:54:00,SystemResetWarning,0832.4,4.99,000.00,029.3,028.6,000.0,037.6,031.2,039.1,-001.3,0012.39,0045.74,0009.15
2024-06-14 16:55:00,SystemResetWarning,0832.3,5.00,000.00,029.4,028.8,000.0,037.6,031.3,039.1,-001.5,0012.40,0046.34,0009.13
2024-06-14 16:56:00,SystemResetWarning,0832.3,5.00,000.00,029.5,029.0,000.0,037.7,031.4,039.0,-001.3,0012.46,0044.49,0009.13
2024-06-14 16:57:00,SystemResetWarning,0832.3,5.00,000.00,029.6,029.1,000.0,037.7,031.5,038.7,-000.8,0012.41,0042.94,0009.11
2024-06-14 16:58:00,SystemResetWarning,0832.3,5.00,000.00,029.6,029.2,000.0,037.7,031.5,038.7,-000.3,0012.37,0041.76,0009.10
2024-06-14 16:59:00,SystemResetWarning,0832.3,5.00,000.00,029.7,029.3,000.0,037.8,031.6,038.5,0000.2,0012.32,0041.46,0009.10
